Flag for Spain Weather past 2 weeks in Valladolid, Spain

Now
79 °F

Sunny.


Feels Like: 79 °F
Forecast: 54 / 92 °F
Wind: 2 mph from North

Location: Valladolid / Villanubla

Current Time: Jul 2, 2015 at 11:41:36 PM

Latest Report: Jul 2, 2015 at 9:30 PM


Visibility: 10 mi

Pressure: 30.12 "Hg

Humidity: 32%

Dew point: 46 °F

Location of ValladolidLocation

Historic Weather in Valladolid — Graph

°F

Valladolid temperature yesterday

Maximum temperature yesterday: 90 °F (at 3:00 PM)
Minimum temperature yesterday: 61 °F (at 7:00 AM)
Average temperature yesterday: 80 °F

Past Weeks' High & Low Weather Summary

 TemperatureHumidityPressure
High95 °F (Jun 29, 2:00 PM)94% (Jun 23, 7:00 AM)30.27 "Hg (Jun 23, 7:00 AM)
Low48 °F (Jun 18, 7:00 AM)13% (Jun 27, 6:00 PM)29.95 "Hg (Jun 30, 8:00 PM)
Average76 °F41%30.14 "Hg
* Reported Jun 17 9:00 PM — Jul 2 9:30 PM, Valladolid, Weather by CustomWeather, © 2015

Note: Actual official high and low records may vary slightly from our data, if they occured in-between our weather recording intervals... More about our weather records

Advertising

Valladolid weather history for previous 24 hours

 ConditionsComfort  
Time TempWeatherWind HumidityBarometerVisibility
9:30 PM
Thu, Jul 2
79 °FSunny.2 mph32%30.12 "Hg10 mi
9:00 PM79 °FSunny.7 mph32%30.12 "Hg10 mi
8:30 PM81 °FSunny.6 mph30%30.12 "Hg10 mi
8:00 PM82 °FPassing clouds.3 mph30%30.12 "HgN/A
7:30 PM82 °FSunny.2 mph30%30.12 "Hg10 mi
7:00 PM81 °FPassing clouds.7 mph30%30.12 "HgN/A
6:30 PM82 °FPassing clouds.5 mph28%30.12 "HgN/A
6:00 PM82 °FSunny.5 mph30%30.12 "Hg10 mi
5:30 PM82 °FSunny.3 mph30%30.12 "Hg10 mi
5:00 PM81 °FPassing clouds.7 mph34%30.15 "HgN/A
4:30 PM81 °FPassing clouds.13 mph34%30.15 "HgN/A
4:00 PM81 °FPassing clouds.6 mph34%30.15 "HgN/A
3:30 PM81 °FPassing clouds.8 mph34%30.15 "HgN/A
3:00 PM79 °FPassing clouds.8 mph42%30.15 "HgN/A
2:30 PM77 °FPassing clouds.12 mph36%30.18 "HgN/A
2:00 PM77 °FPassing clouds.7 mph44%30.18 "HgN/A
1:30 PM75 °FPassing clouds.5 mph47%30.18 "HgN/A
1:00 PM73 °FPassing clouds.3 mph53%30.18 "HgN/A
12:30 PM73 °FPassing clouds.6 mph53%30.18 "HgN/A
12:00 PM70 °FPassing clouds.3 mph60%30.18 "HgN/A
11:30 AM70 °FScattered clouds.1 mph57%30.18 "HgN/A
11:00 AM70 °FScattered clouds.3 mph60%30.18 "HgN/A
10:30 AM68 °FPassing clouds.3 mph64%30.18 "HgN/A
10:00 AM66 °FPassing clouds.5 mph68%30.18 "HgN/A
9:30 AM64 °FPassing clouds.3 mph73%30.15 "HgN/A
9:00 AM63 °FSunny.9 mph77%30.15 "Hg10 mi
8:30 AM61 °FSunny.8 mph83%30.15 "Hg10 mi
8:00 AM59 °FSunny.7 mph88%30.15 "Hg10 mi
7:30 AM55 °FClear.7 mph94%30.15 "Hg10 mi
7:00 AM55 °FClear.6 mph94%30.12 "Hg10 mi
Weather by CustomWeather, © 2015

See weather overviewHow to use our weather pages